This is the latest recevied weather packets stored in our database for station/object OE-11307. If no packets are shown the sender has not sent any weather packets the latest 10 day(s).
| Time | Temp. | Humidity | Pressure | Rain* | Wind** | Luminosity | Snow |
|---|---|---|---|---|---|---|---|
| 1788003314 | 17.78° C | 61% | 853.1 hPa | 0 mm | - | 838 W/m² | - |
| 1788002714 | 17.78° C | 62% | 853.1 hPa | 0 mm | - | 838 W/m² | - |
| 1788001887 | 17.22° C | 60% | 853.2 hPa | 0 mm | - | 838 W/m² | - |
| 1788001513 | 17.22° C | 63% | 853.3 hPa | 0 mm | - | 832 W/m² | - |
| 1788000914 | 17.78° C | 67% | 853.3 hPa | 0 mm | - | 832 W/m² | - |
| 1788000087 | 17.22° C | 67% | 853.3 hPa | 0 mm | - | 825 W/m² | - |
| 1787999714 | 17.22° C | 72% | 853.4 hPa | 0 mm | - | 819 W/m² | - |
| 1787999114 | 16.67° C | 72% | 853.4 hPa | 0 mm | - | 807 W/m² | - |
| 1787998287 | 17.22° C | 73% | 853.4 hPa | 0 mm | - | 794 W/m² | - |
| 1787997913 | 16.67° C | 76% | 853.4 hPa | 0 mm | - | 781 W/m² | - |
| 1787997314 | 16.67° C | 71% | 853.3 hPa | 0 mm | - | 769 W/m² | - |
| 1787996487 | 16.67° C | 73% | 853.3 hPa | 0 mm | - | 750 W/m² | - |
| 1787996114 | 15.56° C | 74% | 853.3 hPa | 0 mm | - | 731 W/m² | - |
| 1787995514 | 15.56° C | 73% | 853.4 hPa | 0 mm | - | 712 W/m² | - |
| 1787994687 | 15.56° C | 74% | 853.5 hPa | 0 mm | - | 687 W/m² | - |
| 1787994314 | 15° C | 77% | 853.4 hPa | 0 mm | - | 668 W/m² | - |
| 1787993714 | 14.44° C | 77% | 853.3 hPa | 0 mm | - | 643 W/m² | - |
| 1787992886 | 13.89° C | 80% | 853.2 hPa | 0 mm | - | 617 W/m² | - |
| 1787992513 | 13.89° C | 81% | 853.3 hPa | 0 mm | - | 592 W/m² | - |
| 1787991914 | 13.33° C | 80% | 853.3 hPa | 0 mm | - | 567 W/m² | - |
| 1787991087 | 13.33° C | 83% | 853.2 hPa | 0 mm | - | 542 W/m² | - |
| 1787990713 | 12.78° C | 86% | 853.3 hPa | 0 mm | - | 517 W/m² | - |
| 1787990114 | 12.22° C | 86% | 853.2 hPa | 0 mm | - | 485 W/m² | - |
| 1787989286 | 12.22° C | 89% | 853.2 hPa | 0 mm | - | 447 W/m² | - |
| 1787988914 | 11.67° C | 91% | 853.2 hPa | 0 mm | - | 422 W/m² | - |
* Rain latest hour (hover to see other rain measurements)
** Current wind speed in m/s (hover to see current wind gust speed)